STARLINK-31866, 59668

Orbit data source: Space-Track

STARLINK-31866, 59668 is a payload satellite owned by SpaceX/Seattle (US) in LEO that was launched on Mon, 06 May 2024 UTC via an FALCON 9 launch vehicle from the Air Force Eastern Test Range (AFETR). Payload-class satellites include a variety of spacecraft equipped with specific instruments for various scientific and technological missions. These include communications satellites like Starlink; space stations such as the ISS; scientific satellites like the Hubble; Earth observation satellites from companies like Planet Labs, Umbra, and HawkEye 360; GPS; miniature CubeSats for education and research; and military/defense satellites.

Loading next visibility...
Identifier
59668, 2024-084Q
Orbit
LEO
Country
Flag of USUS
Related business
Manufacturer
SpaceX/Seattle
Mission
Operational Commercial Communications
Bus & Motor
STARLINK V2M, Unknown motor
Mass
730 kg wet, ~700 kg dry
Launch date (UTC)
2024-05-06 (1 year ago)
Launch vehicle
FALCON 9
Launch site
Air Force Eastern Test Range (AFETR)
Object type
Payload
Rocket body
Debris
Shape & HBR
Box + 2 Pan, 17.7 m
Radar Cross Section
33.884 m², Large (>1 m²)

Expand to show TLE details & history
Last TLE update: 4 hours ago

TLE from 4 hours ago
0 STARLINK-31866
1 59668U 24084Q   25288.63077103 -.00001680  00000-0 -51541-4 0  9991
2 59668  43.0038 133.6141 0001537 282.1125  77.9554 15.27567232 82276
Epoch: 2025-10-15T15:08Z
TLE epoch observation values (Epoch: 2025-10-15T15:08:18.616Z)
Latitude
-0.00003°
Longitude
-117.86558°
Altitude
482.643 km
Speed
7.626 km/s
True Right ascension
08h 54m 27s
True Declination
0° 00' 00"
Sunlit
Object was in daylight at epoch
Visualization orbit readout
Latitude
Unknown
Longitude
Unknown
Altitude
Unknown
Speed
Unknown
Apparent Right ascension
Unknown
Apparent Declination
Unknown
Sunlit
N/A
Visualization observer readout
Local Sidereal Time
13:52:13
Azimuth
Unknown
Elevation
Unknown
Doppler factor
Unknown
Orbital elements
Apogee altitude
486.087 km
Perigee altitude
483.977 km
Semi-major axis
6,863.169 km
Eccentricity
0.00015
Inclination
43.0038°
RAAN
133.6141°
Arg. of periapsis
282.1125°
True anomaly
77.97263°
Mean anomaly
77.9554°
Eccentric anomaly
77.96401°
Mean motion
3.8173 °/min
Orbital period
94.31 mins
BSTAR
-0.000051541
Loading maneuver chart data...
Computing Atmospheric mass density...
Loading historical data...
Loading historical data...
Loading historical data...
Loading historical data...
Loading historical data...
Loading historical data...
Loading historical data...

Documentation

Showing up to 5 results
|